星链-32766 (STARLINK-32766)

导读

STARLINK-32766是美国SpaceX星链星座的一员,于2025年1月10日发射入轨,属于星链低轨互联网卫星星座组网卫星。它依托星链系统的部署规划,承担着全球范围尤其是偏远区域的宽带互联网接入服务任务,是美国推进低轨巨型卫星星座建设,完善全球卫星互联网覆盖的重要组成部分。

基本信息
目录编号:
62574
目录名称:
STARLINK-32766
国际标识:
2025-006W
轨道中心:
EARTH
卫星名称:
星链-32766
卫星全名:
星链-32766 (STARLINK-32766)
卫星状态:
在轨 (已飞行602 天)
发射日期:
2025-01-10 UTC
国别 :
美国 (US)
星等 :
--
轨道信息
数据来源 国际轨道数据
星历时间: 2026-09-04T01:48:48+0800
17小时前
查看轨道信息
半长轴: 6861.29km
偏心率: 0.0001745
轨道倾角: 43.002°
近地点辐角 260.578°
升交点赤经 7.009°
平近点角 99.487°
近地点: 481.955km
远地点: 484.351km
周期: 94.269分钟
每日圈数: 15.275454
详细信息
固有亮度:
5
最大亮度:
2.5
卫星平台:
Starlink V1.0
覆盖范围:
全球
运营商:
太空探索技术公司
运营商所在国:
美国
制造商(研发单位):
太空探索技术公司
制造商所在国:
美国
使用方式:
暂无
卫星简介
Starlink 计划是 SpaceX 推出的全球卫星互联网项目,通过发射低轨道卫星,为全球尤其是偏远地区提供高速、低延迟的互联网服务。自 2019 年起,Starlink 已部署数千颗卫星,旨在缩小全球数字鸿沟,推动互联网普及。该项目还为军事、航空等行业提供通信支持,带来广泛经济效益。
2D轨道图
3D轨道图
轨道高度分析图
轨道倾角分析图
轨道综合分析图
查看轨道综合分析图